EKRAN 2 DEB, 12996

Orbit data source: Space-Track

EKRAN 2 DEB, 12996 is space debris in GEO originally from a launch on Tue, 20 Sep 1977 UTC launched from the Tyuratam Missile And Space Complex (TTMTR). Debris objects in space refer to the collection of defunct objects orbiting the Earth. Examples of debris include non-operational satellites, rocket bodies, and fragments generated from explosions, collisions, or faulty payload assembly.

Not visible in the next 10 days
EKRAN 2 DEB details
Identifier
12996, 1977-092J
Orbit
GEO
Last TLE update22 hours ago
Origin
Flag of CISGUKOS RVSN (CIS)
ManufacturerUnknown
MissionSpacecraft
Bus & MotorUnknown
MassUnknown
Launch date (UTC)
1977-09-20 (47 years ago)
Launch vehicleUnknown
Launch site
Tyuratam Missile And Space Complex (TTMTR)
Object type
Payload
Rocket body
Debris
Shape & HBRUnknown
Radar Cross SectionMedium (>0.1 m² and <1 m²)

Expand to show TLE details & history

TLE from 22 hours ago
0 EKRAN 2 DEB
1 12996U 77092J   25035.39484043 -.00000154  00000-0  00000-0 0  9993
2 12996   5.5847 281.4461 0016095 298.2913  41.0425  1.00056190 79520
Epoch: 2025-02-04T09:28Z
Definitive object data (Epoch: 2025-02-04T09:28:34.213Z)
Latitude-1.95849°
Longitude-15.925°
Altitude35,795.979 km
Speed3.076 km/s
True Right ascension17h 24m 04s
True Declination-1° 57' 23"
Sunlit
Object was in daylight at TLE epoch
Visualization TLE readout
Latitude-4.01117°
Longitude-41.36323°
Altitude35,782.122 km
Speed3.077 km/s
Apparent Right ascension16h 08m 58s
Apparent Declination-9° 26' 19"
Sunlit
Object is in daylight
Visualization observer readout
Local Sidereal Time09:48:31
Azimuth94.04° ESE
Elevation-9.94°
Doppler factor1
Orbital elements
Apogee altitude35,916.16 km
Perigee altitude35,780.233 km
Semi-major axis42,226.334 km
Eccentricity0.0016095
Inclination5.5847°
RAAN281.4461°
Arg. of periapsis298.2913°
True anomaly41.16379°
Mean anomaly41.0425°
Eccentric anomaly41.10313°
Mean motion0.25013 °/min
BSTARUnknown
Orbital period1439.24 mins
Loading historical data...
12996 neighbors
Authenticating...
Loading maneuver chart data...
Loading historical data...
Loading historical data...
Loading historical data...
Loading historical data...
Loading historical data...
Loading historical data...
Loading historical data...

EKRAN 2 DEB Visibility forecast

Observer location: undefined°, undefined

EKRAN 2 DEB is not visible in the next 10 days
Span
Click to sort rows by Start time (UTC) header in descending order
Start Az.
Max El. time (UTC)
Max El. Az.
Max El.
End time (UTC)
End Az.
|